Location: York
(31.8935°S, 116.7682°E)
Time: 02:49:57
(UTC+08:00)

DX 1 - Pass Details

Date: 04 August 2021
Orbit: 618 x 631 km, 98.4° (Epoch: 23 September)

Event Time Altitude Azimuth Distance (km) Brightness Sun altitude
Rises 18:33:21 0° 34° (NE) 2,891 ? -11.9°
Reaches altitude 10° 18:35:40 10° 44° (NE) 1,991 ? -12.4°
Maximum altitude 18:39:34 34° 108° (ESE) 1,043 ? -13.2°
Drops below altitude 10° 18:43:30 10° 172° (S) 2,011 ? -14.0°
Sets 18:45:51 0° 181° (S) 2,924 ? -14.5°
